Regional Weather Roundup
Issued by NWS

Home | Current Version | Previous Version | Text Only | Print | Product List | Glossary Off
Versions: 1 2 3 4 5 6 7 8 9 10 11 12 13 14 15 16 17 18 19 20 21 22 23 24 25 26 27 28 29 30 31 32 33 34 35 36 37 38 39 40 41 42 43 44 45 46 47 48 49 50

453
ASUS43 KBIS 242110
RWRND

NORTH DAKOTA REGIONAL WEATHER ROUNDUP
NATIONAL WEATHER SERVICE BISMARCK ND
300 PM CST TUE JAN 24 2017

NOTE: "FAIR" INDICATES FEW OR NO CLOUDS BELOW 12,000 FEET WITH NO
SIGNIFICANT WEATHER AND/OR OBSTRUCTIONS TO VISIBILITY.


NDZ001>003-009>011-017-242200-
NORTHWEST NORTH DAKOTA

CITY           SKY/WX    TMP DP  RH WIND       PRES   REMARKS
WILLISTON      CLOUDY    20  14  77 NW8       29.91S WCI  10
MINOT          CLOUDY    23  17  78 W15       29.87R WCI  10
$$

NDZ018>021-031>035-040>046-242200-
SOUTHWEST NORTH DAKOTA

CITY           SKY/WX    TMP DP  RH WIND       PRES   REMARKS
BISMARCK       CLOUDY    26  18  71 NW14      29.87S WCI  14
DICKINSON      CLOUDY    21  15  78 NW13      29.82S WCI   9
GARRISON         N/A     23  18  81 NW16      29.85F WCI  10
HETTINGER ARPT CLOUDY    20  16  84 NW15      29.84S WCI   6
$$

NDZ004>008-012>016-024-026-027-054-242200-
NORTHEAST NORTH DAKOTA

CITY           SKY/WX    TMP DP  RH WIND       PRES   REMARKS
GRAND FORKS    CLOUDY    28  21  75 NW6       29.85S
GRND FRKS AFB  CLOUDY    27  22  81 NW6       29.86R
DEVILS LAKE    CLOUDY    23  21  92 NW7       29.85R WCI  15
$$

NDZ022-023-025-028>030-036>039-047>053-242200-
SOUTHEAST NORTH DAKOTA

CITY           SKY/WX    TMP DP  RH WIND       PRES   REMARKS
FARGO          CLOUDY    30  22  72 N7        29.85F
JAMESTOWN      CLOUDY    25  21  85 NW13      29.84R WCI  14
$$





USA.gov is the U.S. government's official web portal to all federal, state and local government web resources and services.